Location: Igon
(43.1667°N, 0.2333°W)
Time: 21:29:09
(UTC+00:00)

Cosmos 1515 Rocket - Pass Details

Date: 29 November 2020
Orbit: 605 x 631 km, 82.5° (Epoch: 21 January)

Event Time Altitude Azimuth Distance (km) Brightness Sun altitude
Exits shadow 05:46:51 10° 339° (NNW) 2,026 5.8 -15.0°
Reaches altitude 10° 05:46:52 10° 339° (NNW) 2,019 5.8 -15.0°
Maximum altitude 05:51:06 44° 268° (W) 883 3.9 -14.2°
Drops below altitude 10° 05:55:19 10° 196° (SSW) 2,004 6.2 -13.5°
Sets 05:57:37 0° 190° (S) 2,905 7.1 -13.1°
